GW3643 Weather Reports


Display with metric or nautical units.
time (UTC)temp
F
wind
direction
speed
MPH
gust
MPH
rain 1hr
in
rain 24hr
in
rain mn
in
humidity
%
barometer
mb
20260510091554 54 170 7.0 19.0 0.00 0.43 0.03 81 1011.6
20260510091045 54 180 7.0 15.0 0.00 0.43 0.03 81 1011.6
20260510090545 55 184 7.0 15.0 0.00 0.43 0.03 80 1011.6
20260510090052 54 126 6.0 14.0 0.00 0.43 0.03 83 1011.6
20260510085544 54 165 6.0 14.0 0.00 0.43 0.03 84 1011.6
20260510085045 53 222 5.0 13.0 0.00 0.43 0.03 85 1011.7
20260510084548 53 159 6.0 13.0 0.00 0.43 0.03 86 1011.6
20260510084046 53 180 5.0 13.0 0.00 0.43 0.03 86 1011.7
20260510083545 52 135 7.0 13.0 0.00 0.43 0.03 86 1011.6
20260510083051 52 145 5.0 15.0 0.00 0.43 0.03 86 1011.6
20260510082544 52 170 6.0 15.0 0.00 0.43 0.03 86 1011.7
20260510082042 52 147 8.0 15.0 0.00 0.43 0.03 85 1011.8
20260510081549 52 182 6.0 15.0 0.00 0.43 0.03 85 1011.9
20260510081046 52 200 4.0 12.0 0.00 0.43 0.03 86 1011.8
20260510080543 52 188 7.0 12.0 0.00 0.43 0.03 86 1011.8
20260510080054 52 199 5.0 16.0 0.00 0.43 0.03 86 1011.6
20260510075545 52 173 6.0 16.0 0.00 0.43 0.03 86 1011.7
20260510075045 51 221 6.0 11.0 0.00 0.43 0.03 86 1012.0
20260510074552 52 178 7.0 15.0 0.00 0.43 0.03 86 1012.1
20260510074045 51 180 5.0 15.0 0.00 0.43 0.03 86 1012.0
20260510073548 51 166 5.0 10.0 0.00 0.43 0.03 86 1012.1
20260510073056 51 146 4.0 10.0 0.00 0.43 0.03 86 1011.9
20260510072548 51 183 5.0 10.0 0.00 0.43 0.03 86 1011.9
20260510072045 51 179 5.0 10.0 0.00 0.43 0.03 85 1012.0
20260510071551 51 191 4.0 10.0 0.00 0.43 0.03 85 1011.9
20260510071045 51 193 5.0 10.0 0.00 0.43 0.03 84 1011.9
20260510070545 51 222 5.0 10.0 0.00 0.42 0.02 84 1011.8
20260510070105 51 168 5.0 10.0 0.00 0.42 0.02 84 1011.8
20260510065547 51 178 4.0 11.0 0.00 0.42 0.02 84 1011.9
20260510065047 51 179 6.0 11.0 0.00 0.42 0.02 84 1011.8
20260510064600 51 150 5.0 10.0 0.00 0.42 0.02 84 1011.8
20260510064048 51 166 4.0 10.0 0.00 0.42 0.02 84 1011.9
20260510063545 51 186 3.0 9.0 0.00 0.42 0.02 85 1011.8
20260510063059 51 188 3.0 9.0 0.00 0.42 0.02 85 1011.7
20260510062547 51 171 5.0 9.0 0.00 0.42 0.02 85 1011.6
20260510062042 51 178 4.0 9.0 0.00 0.42 0.02 86 1011.6
20260510061551 50 183 3.0 11.0 0.00 0.42 0.02 86 1011.5
20260510061042 50 168 5.0 11.0 0.00 0.42 0.02 86 1011.6
20260510060545 50 189 5.0 9.0 0.00 0.42 0.02 86 1011.6
20260510060059 50 155 3.0 8.0 0.00 0.42 0.02 86 1011.6
20260510055545 50 172 4.0 10.0 0.00 0.42 0.02 86 1011.5
20260510055046 50 187 4.0 11.0 0.00 0.42 0.02 86 1011.5
20260510054600 50 184 6.0 11.0 0.00 0.42 0.02 86 1011.5
20260510054044 50 187 3.0 8.0 0.00 0.42 0.02 86 1011.6
20260510053542 50 146 4.0 8.0 0.00 0.42 0.02 86 1011.4
20260510053054 50 149 3.0 9.0 0.00 0.42 0.02 86 1011.5
20260510052545 50 187 5.0 10.0 0.00 0.42 0.02 86 1011.5
20260510052042 50 168 4.0 10.0 0.00 0.42 0.02 86 1011.5
20260510051555 50 176 5.0 9.0 0.00 0.42 0.02 87 1011.5
20260510051045 50 179 3.0 9.0 0.00 0.42 0.02 87 1011.4
20260510050542 50 199 4.0 9.0 0.00 0.42 0.02 87 1011.3
20260510050053 50 166 3.0 6.0 0.00 0.42 0.02 87 1011.3
20260510045542 50 137 2.0 6.0 0.00 0.42 0.02 87 1011.4
20260510045045 50 124 3.0 7.0 0.00 0.42 0.02 87 1011.3
20260510044611 50 184 4.0 7.0 0.00 0.42 0.02 87 1011.4
20260510044047 50 210 4.0 7.0 0.00 0.42 0.02 87 1011.3
20260510043545 50 179 3.0 8.0 0.00 0.42 0.02 87 1011.4
20260510043054 50 168 3.0 8.0 0.00 0.42 0.02 87 1011.3
20260510042544 50 201 4.0 8.0 0.00 0.42 0.02 87 1011.4
20260510042044 50 194 3.0 8.0 0.00 0.42 0.02 87 1011.4
20260510041557 50 178 4.0 9.0 0.00 0.42 0.02 86 1011.4
20260510041047 50 173 5.0 9.0 0.00 0.42 0.02 86 1011.5
20260510040549 50 159 3.0 9.0 0.00 0.42 0.02 86 1011.5
20260510040049 50 186 3.0 9.0 0.00 0.42 0.02 86 1011.3
20260510035544 50 178 3.0 7.0 0.00 0.42 0.02 86 1011.3
20260510035047 50 184 3.0 7.0 0.00 0.42 0.02 86 1011.3
20260510034550 50 151 3.0 7.0 0.00 0.42 0.02 86 1011.4
20260510034043 50 166 3.0 8.0 0.00 0.42 0.02 86 1011.4
20260510033545 50 131 3.0 8.0 0.00 0.42 0.02 86 1011.4
20260510033115 50 165 2.0 7.0 0.00 0.42 0.02 86 1011.4
20260510032546 50 160 3.0 7.0 0.00 0.42 0.02 86 1011.5
20260510032042 50 165 2.0 7.0 0.00 0.42 0.02 86 1011.6
20260510031605 50 180 3.0 9.0 0.00 0.42 0.02 86 1011.7
20260510031043 50 182 4.0 9.0 0.00 0.42 0.02 86 1011.7
20260510030545 50 184 2.0 9.0 0.00 0.42 0.02 87 1011.8
20260510030054 50 190 4.0 9.0 0.00 0.42 0.02 87 1011.8
20260510025543 50 180 3.0 6.0 0.00 0.42 0.02 87 1011.8
20260510025042 50 165 3.0 6.0 0.00 0.42 0.02 87 1012.0
20260510024552 50 196 1.0 4.0 0.00 0.42 0.02 87 1012.1
20260510024044 50 0 1.0 3.0 0.00 0.42 0.02 87 1012.0
20260510023544 50 0 0.0 4.0 0.00 0.42 0.02 87 1012.1
20260510023051 50 218 1.0 4.0 0.00 0.42 0.02 87 1012.1
20260510022547 50 208 2.0 4.0 0.00 0.42 0.02 87 1012.1
20260510022043 50 218 1.0 4.0 0.00 0.42 0.02 87 1012.0
20260510021551 50 203 2.0 5.0 0.00 0.42 0.02 87 1012.0
20260510021043 50 0 0.0 5.0 0.00 0.42 0.02 87 1011.9
20260510020548 50 186 1.0 4.0 0.00 0.42 0.02 87 1012.0
20260510020052 50 0 1.0 4.0 0.00 0.42 0.02 87 1012.1
20260510015542 50 0 0.0 7.0 0.00 0.42 0.02 87 1012.0
20260510015048 50 248 1.0 7.0 0.00 0.42 0.02 87 1012.1
20260510014606 50 276 0.0 6.0 0.00 0.42 0.02 87 1012.0
20260510014045 50 284 1.0 6.0 0.00 0.42 0.02 87 1012.0
20260510013542 50 228 0.0 5.0 0.00 0.42 0.02 87 1012.0
20260510013049 50 211 1.0 5.0 0.00 0.42 0.02 87 1012.0
20260510012545 50 0 2.0 5.0 0.00 0.42 0.02 87 1012.0
20260510012045 50 0 0.0 7.0 0.00 0.42 0.02 87 1012.1
20260510011559 50 251 1.0 7.0 0.00 0.42 0.02 87 1012.1
20260510011044 50 213 3.0 8.0 0.00 0.42 0.02 87 1012.2
20260510010544 50 221 3.0 9.0 0.00 0.42 0.02 87 1012.2
20260510010100 50 191 3.0 9.0 0.00 0.42 0.02 87 1012.1
20260510005544 50 250 3.0 8.0 0.00 0.42 0.02 87 1012.2
20260510005046 51 207 1.0 8.0 0.00 0.42 0.02 87 1012.1
20260510004556 50 163 3.0 8.0 0.00 0.42 0.02 87 1012.1
20260510004045 50 226 3.0 8.0 0.00 0.42 0.02 87 1012.3
20260510003542 50 203 2.0 8.0 0.00 0.42 0.02 87 1012.3
20260510003100 50 222 3.0 7.0 0.00 0.42 0.02 87 1012.3
20260510002545 50 222 3.0 7.0 0.00 0.42 0.02 87 1012.4
20260510002042 50 209 1.0 7.0 0.00 0.42 0.02 87 1012.4
20260510001554 50 239 1.0 5.0 0.00 0.42 0.02 87 1012.3
20260510001043 50 253 1.0 5.0 0.00 0.42 0.02 87 1012.4
20260510000544 50 0 0.0 7.0 0.00 0.42 0.02 87 1012.4
20260510000057 50 0 2.0 7.0 0.00 0.42 0.02 87 1012.4
20260509235547 50 244 0.0 5.0 0.00 0.42 0.02 88 1012.5
20260509235042 50 188 2.0 5.0 0.01 0.42 0.02 87 1012.4
20260509234605 50 191 0.0 4.0 0.02 0.42 0.02 87 1012.5
20260509234042 50 0 0.0 9.0 0.02 0.42 0.02 87 1012.5
20260509233547 50 0 2.0 10.0 0.02 0.42 0.02 87 1012.5
20260509233050 50 220 4.0 10.0 0.02 0.42 0.02 87 1012.6
20260509232545 50 0 0.0 4.0 0.02 0.42 0.02 87 1012.5
20260509232043 50 191 1.0 6.0 0.02 0.42 0.02 87 1012.6
20260509231552 50 0 1.0 9.0 0.02 0.42 0.02 87 1012.6
20260509231042 50 215 3.0 9.0 0.02 0.42 0.02 87 1012.6
20260509230545 50 205 4.0 8.0 0.02 0.42 0.02 86 1012.7
20260509230056 50 211 2.0 14.0 0.01 0.41 0.01 86 1012.7
20260509225548 51 0 3.0 14.0 0.01 0.41 0.01 86 1012.7
20260509225047 51 71 2.0 7.0 0.00 0.40 0.00 86 1012.6
20260509224547 51 276 1.0 11.0 0.00 0.40 0.00 86 1012.5
20260509224045 51 0 1.0 11.0 0.00 0.40 0.00 85 1012.4
20260509223544 51 16 0.0 9.0 0.00 0.40 0.00 86 1012.4
20260509223101 51 0 1.0 9.0 0.00 0.40 0.00 85 1012.4
20260509222542 51 0 0.0 3.0 0.00 0.40 0.00 86 1012.3
20260509222042 51 229 0.0 4.0 0.00 0.40 0.00 86 1012.3
20260509221551 51 0 1.0 4.0 0.00 0.40 0.00 86 1012.3
20260509221045 51 0 1.0 4.0 0.00 0.40 0.00 86 1012.3
20260509220543 51 0 2.0 4.0 0.00 0.40 0.00 86 1012.1
20260509215544 51 249 0.0 3.0 0.01 0.40 0.40 87 1011.9
20260509215044 51 0 0.0 3.0 0.02 0.40 0.40 87 1011.9
20260509214547 50 270 0.0 3.0 0.03 0.40 0.40 87 1011.9
20260509214043 50 0 0.0 3.0 0.04 0.40 0.40 87 1012.0
20260509213542 50 303 0.0 3.0 0.05 0.40 0.40 88 1012.0
20260509213052 50 0 0.0 3.0 0.07 0.40 0.40 87 1011.9
20260509212544 50 0 0.0 3.0 0.11 0.40 0.40 87 1011.8
20260509212045 50 297 0.0 3.0 0.11 0.40 0.40 87 1011.9
20260509211553 50 0 0.0 8.0 0.11 0.40 0.40 87 1011.9
20260509211045 50 298 0.0 8.0 0.11 0.40 0.40 87 1011.9
20260509210542 50 241 2.0 6.0 0.11 0.40 0.40 86 1012.0
20260509210053 50 351 2.0 9.0 0.10 0.39 0.39 86 1012.0
20260509205542 51 0 2.0 9.0 0.09 0.38 0.38 85 1012.0
20260509205046 51 191 2.0 9.0 0.07 0.37 0.37 85 1011.9
20260509204558 51 249 2.0 8.0 0.07 0.36 0.36 83 1011.8
20260509204045 52 81 1.0 12.0 0.06 0.35 0.35 81 1011.8
20260509203543 53 286 3.0 14.0 0.05 0.34 0.34 76 1011.8
20260509203049 56 257 5.0 14.0 0.02 0.31 0.31 68 1011.9
20260509202542 58 202 6.0 13.0 0.00 0.29 0.29 69 1011.3
20260509202046 58 148 6.0 16.0 0.00 0.29 0.29 69 1010.3
20260509201548 58 126 6.0 16.0 0.00 0.29 0.29 69 1010.2
20260509201045 58 153 6.0 16.0 0.00 0.29 0.29 69 1009.9
20260509200542 58 198 7.0 16.0 0.00 0.29 0.29 69 1009.8
20260509200053 58 186 6.0 12.0 0.00 0.29 0.29 69 1009.7
20260509195546 58 187 6.0 12.0 0.00 0.29 0.29 69 1009.6
20260509195051 58 195 5.0 11.0 0.00 0.29 0.29 68 1009.6
20260509194557 58 157 4.0 13.0 0.00 0.29 0.29 67 1009.6
20260509194043 58 179 5.0 13.0 0.00 0.29 0.29 67 1009.5
20260509193547 58 194 5.0 12.0 0.00 0.29 0.29 66 1009.4
20260509193051 58 175 7.0 12.0 0.00 0.29 0.29 67 1009.3
20260509192551 58 134 6.0 12.0 0.00 0.29 0.29 67 1009.2
20260509192045 58 196 4.0 14.0 0.00 0.29 0.29 68 1009.1
20260509191554 58 166 4.0 14.0 0.00 0.29 0.29 69 1008.9
20260509191048 58 168 6.0 14.0 0.00 0.29 0.29 70 1008.9
20260509190542 58 200 6.0 14.0 0.00 0.29 0.29 71 1008.9
20260509190056 59 170 6.0 14.0 0.00 0.29 0.29 72 1008.8
20260509185546 58 164 6.0 16.0 0.00 0.29 0.29 72 1008.8
20260509185043 58 138 9.0 16.0 0.00 0.29 0.29 73 1008.8
20260509184550 58 170 7.0 14.0 0.00 0.29 0.29 74 1008.8
20260509184042 58 178 3.0 10.0 0.00 0.29 0.29 75 1008.9
20260509183543 59 149 5.0 10.0 0.00 0.29 0.29 75 1008.8
20260509183055 59 144 3.0 18.0 0.00 0.29 0.29 75 1008.9
20260509182547 59 184 5.0 18.0 0.00 0.29 0.29 76 1008.9
20260509182042 59 176 6.0 13.0 0.00 0.29 0.29 76 1008.9
20260509181602 59 180 5.0 13.0 0.00 0.29 0.29 76 1008.8
20260509181044 59 188 4.0 9.0 0.00 0.29 0.29 76 1008.7
20260509180545 59 164 6.0 10.0 0.00 0.29 0.29 76 1008.8
20260509180050 58 193 4.0 10.0 0.00 0.29 0.29 76 1008.9
20260509175542 58 149 5.0 13.0 0.00 0.29 0.29 77 1009.0
20260509175047 58 204 6.0 13.0 0.00 0.29 0.29 77 1008.9
20260509174557 58 170 5.0 13.0 0.00 0.29 0.29 77 1008.7
20260509174044 58 165 6.0 13.0 0.00 0.29 0.29 77 1008.7
20260509173541 57 176 5.0 11.0 0.07 0.29 0.29 77 1008.8
20260509173058 57 168 5.0 12.0 0.07 0.29 0.29 77 1008.8
20260509172543 57 196 3.0 12.0 0.07 0.29 0.29 79 1009.0
20260509172042 56 183 5.0 12.0 0.07 0.29 0.29 79 1009.0
20260509171603 56 126 4.0 11.0 0.07 0.29 0.29 79 1009.0
20260509171045 55 193 7.0 11.0 0.07 0.29 0.29 78 1009.0
20260509170542 56 143 6.0 11.0 0.07 0.29 0.29 78 1008.9
20260509170050 56 194 5.0 11.0 0.07 0.29 0.29 78 1008.9
20260509165542 56 178 4.0 10.0 0.07 0.29 0.29 80 1008.9
20260509165045 56 180 5.0 14.0 0.07 0.29 0.29 80 1008.8
20260509164550 56 187 6.0 26.0 0.07 0.29 0.29 79 1008.9
20260509164045 58 143 9.0 26.0 0.07 0.28 0.28 76 1008.9
20260509163543 60 213 2.0 13.0 0.00 0.21 0.21 69 1008.7
20260509163053 60 172 5.0 10.0 0.00 0.21 0.21 69 1008.5
20260509162545 60 191 3.0 9.0 0.00 0.21 0.21 70 1008.7
20260509162043 60 166 3.0 9.0 0.00 0.21 0.21 69 1008.7
20260509161552 59 194 1.0 5.0 0.00 0.21 0.21 70 1008.7
20260509161042 59 203 0.0 5.0 0.00 0.21 0.21 71 1008.8
20260509160543 59 215 1.0 5.0 0.00 0.21 0.21 71 1008.7
20260509160058 59 179 0.0 7.0 0.00 0.21 0.21 70 1008.7
20260509155542 59 0 1.0 7.0 0.00 0.21 0.21 73 1008.7
20260509155042 58 211 1.0 6.0 0.02 0.21 0.21 72 1008.8
20260509154601 58 123 1.0 10.0 0.02 0.21 0.21 73 1008.8
20260509154042 58 211 4.0 10.0 0.02 0.21 0.21 73 1008.8
20260509153542 59 147 1.0 8.0 0.02 0.21 0.21 73 1008.8
20260509153056 58 187 2.0 8.0 0.02 0.21 0.21 73 1008.9
20260509152542 58 202 3.0 8.0 0.02 0.21 0.21 75 1009.0
20260509152046 58 0 2.0 5.0 0.02 0.21 0.21 76 1009.0
20260509151602 58 221 0.0 4.0 0.02 0.21 0.21 76 1009.1
20260509151046 58 0 0.0 8.0 0.02 0.21 0.21 78 1009.2
20260509150542 57 0 1.0 11.0 0.02 0.21 0.21 79 1009.0
20260509150057 56 247 4.0 11.0 0.01 0.20 0.20 78 1009.2
20260509145542 57 168 5.0 11.0 0.01 0.20 0.20 75 1009.4
20260509145041 58 205 5.0 12.0 0.00 0.18 0.18 72 1009.5
20260509144613 59 181 5.0 12.0 0.00 0.18 0.18 69 1009.6
20260509144044 59 196 3.0 10.0 0.00 0.18 0.18 68 1009.3
20260509143543 59 211 5.0 15.0 0.00 0.18 0.18 68 1009.4
20260509143056 59 166 5.0 15.0 0.00 0.18 0.18 67 1009.1
20260509142541 59 199 5.0 13.0 0.00 0.18 0.18 66 1009.2
20260509142043 59 156 4.0 9.0 0.00 0.18 0.18 67 1009.0
20260509141554 59 164 4.0 11.0 0.00 0.18 0.18 69 1009.2
20260509141045 59 213 4.0 11.0 0.00 0.18 0.18 68 1009.3
20260509140542 59 205 2.0 7.0 0.00 0.18 0.18 71 1009.4
20260509140112 59 172 2.0 7.0 0.00 0.18 0.18 72 1009.5
20260509135545 59 147 1.0 7.0 0.00 0.18 0.18 73 1009.6
20260509135046 58 0 2.0 7.0 0.01 0.18 0.18 72 1009.6
20260509134552 58 151 1.0 6.0 0.02 0.18 0.18 76 1009.6
20260509134049 57 0 1.0 6.0 0.03 0.18 0.18 80 1009.6
20260509133545 56 149 2.0 5.0 0.03 0.18 0.18 79 1009.7
20260509133102 56 0 2.0 6.0 0.06 0.18 0.18 82 1009.8
20260509132545 56 122 1.0 7.0 0.07 0.18 0.18 82 1009.8
20260509132046 55 48 3.0 7.0 0.07 0.18 0.18 82 1010.0
20260509131556 55 0 2.0 10.0 0.07 0.18 0.18 84 1010.0
20260509131049 54 164 5.0 12.0 0.07 0.18 0.18 85 1010.1
20260509130546 54 169 4.0 12.0 0.07 0.18 0.18 85 1010.2
20260509130057 54 162 4.0 9.0 0.08 0.18 0.18 86 1010.3
20260509125542 54 214 3.0 7.0 0.07 0.18 0.18 86 1010.3
20260509125044 53 230 2.0 9.0 0.07 0.17 0.17 85 1010.2
20260509124606 53 234 2.0 9.0 0.07 0.16 0.16 86 1010.2
20260509124043 53 200 2.0 4.0 0.06 0.15 0.15 86 1010.2
20260509123545 54 0 1.0 4.0 0.04 0.14 0.14 86 1010.1
20260509123053 54 0 0.0 4.0 0.03 0.12 0.12 86 1010.3
20260509122542 54 232 0.0 3.0 0.02 0.11 0.11 86 1010.1
20260509122042 55 0 0.0 4.0 0.01 0.11 0.11 86 1009.9
20260509121604 54 324 1.0 4.0 0.01 0.11 0.11 86 1009.9
20260509121048 55 0 1.0 4.0 0.01 0.11 0.11 86 1009.9
20260509120545 55 0 0.0 4.0 0.01 0.11 0.11 86 1010.0
20260509120052 55 276 0.0 3.0 0.00 0.10 0.10 87 1009.9
20260509115542 55 294 0.0 3.0 0.00 0.10 0.10 86 1009.9
20260509115042 55 0 0.0 3.0 0.00 0.10 0.10 85 1009.8
20260509114557 55 0 0.0 5.0 0.00 0.09 0.09 85 1009.9
20260509114043 55 0 2.0 5.0 0.00 0.09 0.09 84 1009.9
20260509113546 55 257 0.0 4.0 0.01 0.09 0.09 84 1009.9
20260509113059 55 0 0.0 3.0 0.02 0.09 0.09 84 1009.8
20260509112546 55 219 0.0 3.0 0.03 0.09 0.09 85 1009.8
20260509112045 54 0 0.0 5.0 0.06 0.09 0.09 84 1009.8
20260509111603 54 0 1.0 5.0 0.08 0.09 0.09 84 1009.8
20260509111042 55 188 0.0 5.0 0.09 0.09 0.09 84 1009.8
20260509110549 55 0 0.0 4.0 0.09 0.09 0.09 84 1010.0
20260509110056 55 317 1.0 4.0 0.09 0.09 0.09 84 1009.9
20260509105549 55 294 1.0 4.0 0.09 0.12 0.09 83 1009.9
20260509105047 55 0 1.0 4.0 0.09 0.12 0.09 82 1009.8
20260509104552 55 213 2.0 8.0 0.08 0.11 0.08 81 1009.9
20260509104046 54 232 2.0 11.0 0.08 0.11 0.08 81 1009.9
20260509103546 54 197 5.0 15.0 0.07 0.11 0.07 79 1009.9
20260509103104 54 176 6.0 21.0 0.07 0.10 0.07 78 1010.0
20260509102546 55 175 6.0 22.0 0.05 0.08 0.05 76 1009.9
20260509102046 56 176 10.0 22.0 0.02 0.05 0.02 74 1009.9
20260509101553 56 159 9.0 17.0 0.00 0.03 0.00 75 1009.8
20260509101045 57 224 8.0 14.0 0.00 0.03 0.00 74 1009.8
20260509100545 57 180 5.0 16.0 0.00 0.03 0.00 73 1009.5
20260509100054 57 176 8.0 17.0 0.00 0.03 0.00 71 1009.6
20260509095543 57 188 8.0 18.0 0.00 0.04 0.00 71 1009.5
20260509095045 58 171 8.0 18.0 0.00 0.04 0.00 70 1009.5
20260509094555 58 181 8.0 18.0 0.00 0.04 0.00 69 1009.4
20260509094043 58 161 8.0 16.0 0.00 0.04 0.00 70 1009.4
20260509093545 58 184 8.0 12.0 0.00 0.04 0.00 70 1009.4
20260509093056 58 184 6.0 14.0 0.00 0.04 0.00 70 1009.3
20260509092546 57 188 5.0 16.0 0.00 0.04 0.00 71 1009.4
20260509092043 57 174 8.0 16.0 0.00 0.04 0.00 72 1009.4